Location: Newark
(47.4333°N, 19.2500°E)
Time: 07:04:00
(UTC+00:00)

ITUPSAT 1 - Visible Passes

Search period start: 09 May 2021 00:00
Search period end: 19 May 2021 00:00
Orbit: 702 x 712 km, 98.6° (Epoch: 08 May)

Date Brightness Start Highest point End Pass type
(mag) Time Alt. Az. Time Alt. Az. Time Alt. Az.
09 May ? 18:52:29 10° N 18:56:51 36° WNW 19:01:11 10° SW visible
10 May ? 19:37:36 10° NNW 19:40:33 16° WNW 19:43:29 10° W visible
11 May ? 18:42:51 10° N 18:47:23 44° WNW 18:51:54 10° SW visible
12 May ? 19:27:46 10° NNW 19:31:10 20° WNW 19:34:31 10° WSW visible
14 May ? 19:18:00 10° N 19:21:44 23° WNW 19:25:27 10° WSW visible
15 May ? 20:04:26 10° NW 20:05:18 10° NW 20:06:09 10° WNW visible
16 May ? 19:08:17 10° N 19:12:19 28° WNW 19:16:19 10° WSW visible
17 May ? 19:53:55 10° NNW 19:55:56 13° NW 19:57:57 10° W visible
18 May ? 18:58:36 10° N 19:02:52 33° WNW 19:07:06 10° SW visible
